Other Public Products
Issued by NWS Grand Forks, ND

Home | Current Version | Previous Version | Graphics & Text | Print | Product List | Glossary On
Versions: 1 2 3 4 5 6 7 8 9 10 11 12 13 14 15 16 17 18 19 20 21 22 23 24 25 26 27 28 29 30 31 32 33 34 35 36 37 38 39 40 41 42 43 44 45 46 47 48 49 50
000
FPUS83 KFGF 010831
OPUFGF
PRAIRIE TO PINES WEATHER ROUNDUP
NATIONAL WEATHER SERVICE EASTERN NORTH DAKOTA/GRAND FORKS ND
300 AM CDT WED JUL 01 2015

 **SATELLITE DATA USED TO AUGMENT SKY COVER AT AUTOMATED STATIONS**
 *****  WEATHER ACROSS EASTERN NORTH DAKOTA  *****

CITY           SKY/WX    TMP DP  RH WIND       PRES   REMARKS
GRAND FORKS    CLOUDY    62  58  86 E5        29.92S
GRAND FORKS AF FOG       57  55  94 NW1       29.93S VSB 1/2
GRAND CITY NWS   N/A     59 N/A N/A MISG        N/A
BUXTON         NOT AVBL
DEVILS LAKE    MOCLDY    61  54  77 SE3       29.92S
FARGO          CLOUDY    65  60  84 CALM      29.91R
WAHPETON ARPT  CLOUDY    63  61  94 S3        29.92F
$$

 *****  WEATHER ACROSS CENTRAL AND WESTERN NORTH DAKOTA  *****

CITY           SKY/WX    TMP DP  RH WIND       PRES   REMARKS
JAMESTOWN      LGT RAIN  64  62  93 SE9       29.90F
BISMARCK       PTCLDY    63  61  93 SE6       29.90S
MINOT          FOG       61  60  97 SW6       29.92R VSB 1/4
MINOT AFB      FOG       64  64 100 NW3       29.91S VSB 1/4
GARRISON         N/A     57  56  96 N5        29.92R
WILLISTON      PTCLDY    61  59  93 N7        29.94S FOG
DICKINSON      CLOUDY    63  61  93 SE8       29.90S FOG
HETTINGER      PTCLDY    60  58  92 NE7       29.91F FOG
$$

 *****  OTHER OBSERVATIONS NORTHEAST NORTH DAKOTA  *****

CITY           SKY/WX    TMP DP  RH WIND       PRES   REMARKS
WALHALLA       FAIR      57  57 100 MISG      29.93F
LANGDON        FAIR      55  54  94 E6        29.95S
CAVALIER       FAIR      59  57  94 CALM      29.93S FOG
GRAFTON        FAIR      59  59 100 E5        29.93F
CANDO          FAIR      57  57 100 E5        29.94S
FORT TOTTEN    NOT AVBL
ROLLA          CLOUDY    54  54 100 CALM      29.96S
RUGBY          NOT AVBL
 ***** THE ABOVE OBSERVATIONS ARE NON NWS ARE NOT QUALITY
        CONTROLLED AND MAY MIS-REPORT RAIN FOR SNOW...
$$

 *****  OTHER OBSERVATIONS SOUTHEAST NORTH DAKOTA *****

CITY           SKY/WX    TMP DP  RH WIND       PRES   REMARKS
COOPERSTOWN    NOT AVBL
VALLEY CITY    PTSUNNY   63  63 100 S7        29.93R
OAKES          LGT RAIN  63  63 100 E7        29.92F
GWINNER        NOT AVBL
BUFFALO        NOT AVBL
WYNDMERE       NOT AVBL
 ***** THE ABOVE OBSERVATIONS ARE NON NWS ARE NOT QUALITY
       CONTROLLED AND MAY MIS-REPORT RAIN FOR SNOW...
$$

  *****  WEATHER ACROSS NORTHERN MINNESOTA  *****

CITY           SKY/WX    TMP DP  RH WIND       PRES   REMARKS
FLAG ISLAND    CLEAR     66  57  72 S7        29.94S
WARROAD        PTCLDY    57  54  88 S6        29.96S
ROSEAU         MOCLDY    57  54  88 SE3       29.95S
HALLOCK        CLEAR     55  55 100 CALM      29.93S
THF RVR FALLS  CLEAR     57  52  82 E3        29.95S
HALSTAD        NOT AVBL
FOSSTON        PTCLDY    55  48  76 CALM      29.95S
BAUDETTE       PTCLDY    54  52  93 CALM      29.96R
WASKISH        MOCLDY    55  52  88 E3        29.96S
CROOKSTON      PTCLDY    59  54  82 E7        29.93F
$$
  *****  WEATHER ACROSS CENTRAL AND WEST MINNESOTA  *****

CITY           SKY/WX    TMP DP  RH WIND       PRES   REMARKS
BEMIDJI        PTCLDY    53  51  92 CALM      29.96S
PARK RAPIDS    MOCLDY    64  56  75 SE6       29.95S
WADENA           N/A     63  55  77 CALM      29.94S
DETROIT LAKES  CLOUDY    63  59  88 CALM      29.95R
MOORHEAD       CLOUDY    64  61  88 CALM      29.92S
FERGUS FALLS   DRIZZLE   64  64 100 SW5       29.92S
ELBOW LAKE     LGT RAIN  65  63  95 SE5       29.93S
MORRIS MN      MOCLDY    64  61  88 SE5       29.92S
STAPLES        CLOUDY    63  55  77 SE3       29.95S
WHEATON        LGT RAIN  61  61 100 CALM      29.95R
$$
  *****  WEATHER ELSEWHERE ACROSS MINNESOTA  *****

CITY           SKY/WX    TMP DP  RH WIND       PRES   REMARKS
DULUTH         PTCLDY    49  45  86 E5        29.99S
INTRNTL FALLS  CLEAR     45  44  97 CALM      29.97S
ELY            PTCLDY    45  43  93 CALM      29.99F
CLOQUET        CLEAR     48  46  93 CALM      29.98F
BRAINERD       CLOUDY    60  53  77 CALM      29.96F
HIBBING        PTCLDY    45  44  97 CALM      29.99S
ALEXANDRIA     CLOUDY    64  58  80 SE7       29.96S
SAINT CLOUD    CLOUDY    61  56  83 SE5       29.95F
MINNEAPOLIS    CLOUDY    62  51  67 E7        29.96S
$$

  *****  WEATHER ACROSS SOUTH DAKOTA  *****

CITY           SKY/WX    TMP DP  RH WIND       PRES   REMARKS
SIOUX FALLS    LGT RAIN  65  62  90 SE13      29.88F
BROOKINGS      CLOUDY    64  57  77 SE9       29.92S
WATERTOWN      CLOUDY    64  61  90 CALM      29.92R
HURON          CLOUDY    66  66 100 SE7       29.87S FOG
SISSETON         N/A     61  60  97 N5        29.93R
ABERDEEN       LGT RAIN  66  64  93 N5        29.92R FOG
MITCHELL       MOCLDY    66  65  96 CALM      29.88S FOG
PIERRE         CLEAR     65  63  93 NE7       29.84S
MOBRIDGE       MOCLDY    65  64  97 E16       29.86F FOG
RAPID CITY     CLEAR     67  65  93 E3        29.92F
$$

  *****  SOME WEATHER IN NEARBY STATES *****

CITY           SKY/WX    TMP DP  RH WIND       PRES   REMARKS
GLASGOW MT     NOT AVBL
GREAT FALLS MT CLEAR     64  52  64 CALM      30.06S
CHEYENNE WY    MOCLDY    61  57  87 N3        30.15F
SCOTTSBLUFF NE CLEAR     66  58  75 NW6       30.00F
OMAHA NE       CLOUDY    68  66  93 E3        29.85F
DES MOINES IA  MOCLDY    70  63  78 E6        29.90F
DAVENPORT IA   MOCLDY    64  60  87 NE5       29.92R
CHICAGO IL     CLOUDY    56  51  84 NE6       29.92F
EAU CLAIRE WI  PTCLDY    49  47  93 E3        29.97S
LA CROSSE WI   CLEAR     58  50  75 NE5       29.96R
$$

  *****  SOME NATIONAL WEATHER *****

CITY           SKY/WX    TMP DP  RH WIND       PRES   REMARKS
LA GUARDIA NY  CLOUDY    73  69  87 S3        29.76F
RALEIGH NC     MOCLDY    69  66  90 SW7       29.92R
ATLANTA GA     CLEAR     70  64  81 W8        30.02F
NEW ORLEANS LA CLOUDY    76  70  82 S8        30.08S
OKLAHOMA CITY  PTCLDY    77  69  76 S15       29.96F
ALBUQUERQUE NM CLEAR     76  43  30 SE9       30.17R
SALT LAKE CITY CLOUDY    80  55  42 CALM      30.10F
LOS ANGELES CA PTCLDY    67  64  90 W12       29.86F
BOISE ID       CLEAR     76  51  41 SW3       29.96R
SEATTLE WA     CLEAR     69  48  47 N7        30.07S
$$

*** WEATHER ACROSS MANITOBA...SASKATCHEWAN AND ONTARIO ***
                ***ONTARIO***

CITY           SKY/WX    TMP DP  RH WIND       PRES   REMARKS
GERALDTON      CLEAR     37  37 100 CALM      29.99F FOG
THUNDER BAY    CLEAR     41  41 100 W3          N/A
SIOUX LOOKOUT  MOCLDY    55 N/A N/A CALM      29.97
TORONTO        CLOUDY    61  61 100 SW5       29.71F FOG
BIG TROUT LK   CLEAR     55  45  67 S7        29.92F
PICKLE LAKE    NOT AVBL
DRYDEN         MOCLDY    55  52  88 S6        29.97S
KENORA         PTCLDY    59  55  88 S6        29.96S
$$
                *** MANITOBA***

CITY           SKY/WX    TMP DP  RH WIND       PRES   REMARKS
BRANDON        PTCLDY    55  55 100 NE2       29.94S
DAUPHIN        CLEAR     55  54  94 W8        29.92S
ISLAND LAKE    LGT RAIN  59  55  88 SW5       29.89F
PILOT MOUND      N/A     57  57 100 SE5         N/A
THE PAS        CLOUDY    66  63  88 W7        29.86S
THOMPSON       PTCLDY    48  46  93 NE2       29.88R
WINNIPEG       PTCLDY    59  55  88 CALM      29.93F
LYNN LAKE        N/A    N/A N/A N/A MISG        N/A
CHURCHILL      PTCLDY    50  45  81 S8        29.90S
GILLAM         PTCLDY    52  52 100 SE5       29.88S
$$
                ***SASKATCHEWAN***

CITY           SKY/WX    TMP DP  RH WIND       PRES   REMARKS
ESTEVAN        SMOKE     61  61 100 N3        29.96S VSB 1
KINDERSLEY     MOCLDY    55  54  94 S3        30.01R SMOKE
LLOYDMINSTER   CLOUDY    61  55  82 W6        29.97F HAZE
PRINCE ALBERT  MOCLDY    59  59 100 W2        29.91S
REGINA         PTCLDY    54  54 100 NW6       29.98S SMOKE
YORKTON        FOG       55  54  94 VRB2      29.95S VSB 1/4


USA.gov is the U.S. government's official web portal to all federal, state and local government web resources and services.